Location: Unspecified
(0.0000°N, 0.0000°E)
Time: 17:51:20
(UTC+00:00)

STARLINK 1053 - Pass Details

Date: 24 January 2020
Orbit: 548 x 551 km, 53.0° (Epoch: 17 January)

Event Time Altitude Azimuth Distance (km) Brightness Sun altitude
Exits shadow 05:02:15 14° 347° (NNW) 1,552 5.6 -16.4°
Drops below altitude 10° 05:03:04 10° 356° (N) 1,781 6.0 -16.2°
Sets 05:05:44 0° 12° (NNE) 2,696 7.1 -15.6°
